Location: Newark
(60.5925°N, 45.5911°E)
Time: 14:13:36
(UTC+00:00)

Envisat - Pass Details

Date: 17 September 2019
Orbit: 764 x 766 km, 98.1° (Epoch: 20 October)

Event Time Altitude Azimuth Distance (km) Brightness Sun altitude
Rises 16:18:22 0° 208° (SSW) 3,229 6.4 -8.5°
Reaches altitude 10° 16:21:12 10° 224° (SW) 2,307 5.8 -8.8°
Maximum altitude 16:25:03 21° 274° (W) 1,667 5.8 -9.2°
Drops below altitude 10° 16:28:55 10° 323° (NW) 2,319 6.5 -9.7°
Sets 16:31:47 0° 339° (NNW) 3,250 7.0 -10.0°
